AXM481 WIII-WMKK

Flight info

Callsign AXM481
Flight time N/A
Altitude 38000
Route DOLTA A585 PKU/N0440F390 N633 SALAX SALAX3J
Aircraft A20N/M-SDE2E3FGHIRWXY/LB1

Departure

Time N/A
Airport Soekarno-Hatta International Airport (WIII)

Arrival

Time 2026-05-01 15:00
Airport Kuala Lumpur International Airport (WMKK)
Time Latitude Longitude Altitude Speed Heading
2026-05-01 14:30 0.11766 101.74033 37895 ft 446 kts 317°
2026-05-01 14:30 0.13994 101.71872 37895 ft 446 kts 317°
2026-05-01 14:31 0.20669 101.65395 37891 ft 446 kts 317°
2026-05-01 14:31 0.25122 101.61076 37884 ft 446 kts 317°
2026-05-01 14:32 0.29577 101.56755 37882 ft 446 kts 317°
2026-05-01 14:32 0.34026 101.52441 37880 ft 446 kts 317°
2026-05-01 14:33 0.38687 101.48367 37882 ft 444 kts 328°
2026-05-01 14:33 0.44199 101.45699 37884 ft 439 kts 345°
2026-05-01 14:34 0.50192 101.44710 37882 ft 435 kts
2026-05-01 14:34 0.56230 101.45018 37881 ft 433 kts
2026-05-01 14:35 0.62260 101.45460 37879 ft 433 kts
2026-05-01 14:35 0.68284 101.45888 37877 ft 433 kts
2026-05-01 14:36 0.74309 101.46305 37881 ft 433 kts
2026-05-01 14:36 0.80335 101.46719 37877 ft 433 kts
2026-05-01 14:37 0.86361 101.47130 37876 ft 433 kts
2026-05-01 14:37 0.92381 101.47541 37878 ft 433 kts
2026-05-01 14:38 0.98401 101.47953 37872 ft 432 kts
2026-05-01 14:38 1.04417 101.48365 37870 ft 432 kts
2026-05-01 14:39 1.10435 101.48777 37870 ft 432 kts
2026-05-01 14:39 1.16416 101.49184 37450 ft 426 kts
2026-05-01 14:39 1.19369 101.49385 36726 ft 423 kts
2026-05-01 14:40 1.22305 101.49586 35891 ft 420 kts
2026-05-01 14:40 1.25220 101.49788 34778 ft 421 kts
2026-05-01 14:40 1.28154 101.49989 33593 ft 422 kts
2026-05-01 14:40 1.31077 101.50190 32330 ft 423 kts
2026-05-01 14:41 1.34013 101.50391 31072 ft 427 kts
2026-05-01 14:41 1.36974 101.50592 29713 ft 431 kts
2026-05-01 14:41 1.39966 101.50795 28287 ft 435 kts
2026-05-01 14:41 1.42982 101.50999 26837 ft 439 kts
2026-05-01 14:42 1.46057 101.51207 25530 ft 449 kts
2026-05-01 14:42 1.49173 101.51418 24767 ft 447 kts
2026-05-01 14:42 1.52256 101.51628 24206 ft 441 kts
2026-05-01 14:42 1.55303 101.51835 23655 ft 436 kts
2026-05-01 14:43 1.58321 101.52042 23111 ft 432 kts
2026-05-01 14:43 1.61308 101.52246 22567 ft 427 kts
2026-05-01 14:43 1.64263 101.52448 22033 ft 423 kts
2026-05-01 14:43 1.67195 101.52649 21498 ft 420 kts
2026-05-01 14:44 1.70105 101.52849 20959 ft 416 kts
2026-05-01 14:44 1.75843 101.53244 19879 ft 409 kts
2026-05-01 14:44 1.78681 101.53440 19335 ft 406 kts
2026-05-01 14:45 1.81492 101.53632 18792 ft 402 kts
2026-05-01 14:45 1.87040 101.54012 17698 ft 395 kts
2026-05-01 14:45 1.89776 101.54198 17166 ft 392 kts
2026-05-01 14:46 1.92493 101.54386 16634 ft 389 kts
2026-05-01 14:46 1.97862 101.54755 15544 ft 383 kts
2026-05-01 14:46 2.00519 101.54936 15010 ft 381 kts
2026-05-01 14:47 2.03156 101.55119 14477 ft 378 kts
2026-05-01 14:47 2.05782 101.55300 13943 ft 376 kts
2026-05-01 14:47 2.08388 101.55480 13404 ft 373 kts
2026-05-01 14:48 2.13550 101.55835 12377 ft 366 kts
2026-05-01 14:48 2.16066 101.56005 12022 ft 358 kts
2026-05-01 14:48 2.20550 101.57577 10269 ft 342 kts 46°
2026-05-01 14:49 2.23630 101.61087 8331 ft 333 kts 50°
2026-05-01 14:49 2.26677 101.64419 7164 ft 313 kts 48°
2026-05-01 14:50 2.29315 101.67210 7012 ft 347 kts 47°
2026-05-01 14:50 2.32974 101.71029 6591 ft 303 kts 47°
2026-05-01 14:51 2.34389 101.72505 6231 ft 284 kts 47°
2026-05-01 14:51 2.37008 101.75234 5273 ft 266 kts 47°
2026-05-01 14:52 2.39545 101.77874 4395 ft 262 kts 47°
2026-05-01 14:52 2.40798 101.79215 4217 ft 261 kts 50°
2026-05-01 14:52 2.42857 101.82055 3755 ft 242 kts 57°
2026-05-01 14:53 2.43786 101.83441 3489 ft 237 kts 57°
2026-05-01 14:53 2.44893 101.84632 3226 ft 233 kts 31°
2026-05-01 14:53 2.46434 101.85072 2979 ft 232 kts
2026-05-01 14:53 2.48017 101.84786 2759 ft 230 kts 341°
2026-05-01 14:54 2.49433 101.84097 2647 ft 222 kts 331°
2026-05-01 14:54 2.50717 101.83271 2599 ft 214 kts 328°
2026-05-01 14:54 2.51914 101.82451 2570 ft 200 kts 328°
2026-05-01 14:54 2.53053 101.81667 2566 ft 198 kts 328°
2026-05-01 14:55 2.54197 101.80889 2568 ft 198 kts 328°
2026-05-01 14:55 2.55342 101.80116 2569 ft 197 kts 328°
2026-05-01 14:55 2.56433 101.79382 2621 ft 177 kts 328°
2026-05-01 14:55 2.57440 101.78706 2620 ft 172 kts 328°
2026-05-01 14:56 2.58442 101.78037 2647 ft 172 kts 328°
2026-05-01 14:56 2.59444 101.77368 2573 ft 172 kts 328°
2026-05-01 14:56 2.60441 101.76700 2366 ft 171 kts 328°
2026-05-01 14:56 2.61432 101.76036 2148 ft 171 kts 328°
2026-05-01 14:57 2.62421 101.75374 1932 ft 169 kts 328°
2026-05-01 14:57 2.64255 101.74142 1512 ft 147 kts 328°
2026-05-01 14:57 2.65104 101.73574 1332 ft 145 kts 328°
2026-05-01 14:58 2.65947 101.73011 1153 ft 145 kts 328°
2026-05-01 14:58 2.66786 101.72448 970 ft 145 kts 328°
2026-05-01 14:58 2.67624 101.71887 785 ft 144 kts 327°
2026-05-01 14:58 2.68457 101.71328 598 ft 143 kts 327°
2026-05-01 14:59 2.69287 101.70775 409 ft 143 kts 327°
2026-05-01 14:59 2.70118 101.70230 228 ft 142 kts 326°
2026-05-01 14:59 2.70943 101.69680 62 ft 141 kts 326°
2026-05-01 14:59 2.71711 101.69167 36 ft 115 kts 325°
2026-05-01 15:00 2.72522 101.68620 35 ft 43 kts 326°
2026-05-01 15:00 2.72738 101.68475 33 ft 24 kts 328°
2026-05-01 15:00 2.72889 101.68413 34 ft 22 kts 348°
2026-05-01 15:01 2.73023 101.68398 36 ft 18 kts 353°
2026-05-01 15:01 2.73147 101.68381 36 ft 17 kts 349°
2026-05-01 15:01 2.73257 101.68332 36 ft 17 kts 326°
2026-05-01 15:01 2.73355 101.68266 37 ft 16 kts 326°
2026-05-01 15:02 2.73451 101.68203 38 ft 16 kts 326°
2026-05-01 15:02 2.73513 101.68161 39 ft 15 kts 326°
2026-05-01 15:02 2.73635 101.68087 41 ft 14 kts
2026-05-01 15:02 2.73709 101.68161 39 ft 16 kts 56°
2026-05-01 15:03 2.73775 101.68259 37 ft 17 kts 56°
2026-05-01 15:03 2.73843 101.68358 36 ft 17 kts 56°
2026-05-01 15:03 2.73896 101.68437 36 ft 12 kts 55°
2026-05-01 15:03 2.73930 101.68485 36 ft 2 kts 45°
2026-05-01 15:04 2.73931 101.68486 36 ft 0 kts 44°
2026-05-01 15:04 2.73932 101.68487 36 ft 1 kts 44°
2026-05-01 15:05 2.73947 101.68493 36 ft 3 kts 358°
2026-05-01 15:05 2.73981 101.68475 36 ft 6 kts 325°
2026-05-01 15:05 2.74017 101.68450 36 ft 2 kts 324°
2026-05-01 15:05 2.74020 101.68448 36 ft 0 kts 324°